Flag for Cyprus Weather past 2 weeks in Famagusta, Cyprus

Now
86 °F

Scattered clouds.


Feels Like: 85 °F
Forecast: 72 / 87 °F
Wind: 15 mph from Southwest

Location: Larnaca Airport

Current Time: Sep 20, 2014 at 3:03:20 PM

Latest Report: Sep 20, 2014 at 2:30 PM


Visibility: N/A

Pressure: 29.89 "Hg

Humidity: 40%

Dew point: 59 °F

Location of FamagustaLocation

Historic Weather in Famagusta — Graph

°F

Famagusta temperature yesterday

Maximum temperature yesterday: 86 °F (at 12:00 PM)
Minimum temperature yesterday: 66 °F (at 6:00 AM)
Average temperature yesterday: 78 °F

Past Weeks' High & Low Weather Summary

 TemperatureHumidityPressure
High90 °F (Sep 5, 2:00 PM)88% (Sep 10, 5:30 AM)29.92 "Hg (Sep 10, 5:30 AM)
Low66 °F (Sep 18, 6:30 AM)33% (Sep 20, 11:30 AM)29.65 "Hg (Sep 5, 6:00 PM)
Average80 °F64%29.82 "Hg
* Reported Sep 5 2:00 PM — Sep 20 2:00 PM, Famagusta, Weather by CustomWeather, © 2014

Note: Actual official high and low records may vary slightly from our data, if they occured in-between our weather recording intervals... More about our weather records

Advertising

Famagusta weather history for previous 24 hours

 ConditionsComfort  
Time TempWeatherWind HumidityBarometerVisibility
2:00 PM
Sep 20
86 °FScattered clouds.14 mph43%29.89 "HgN/A
1:30 PM86 °FScattered clouds.13 mph43%29.89 "HgN/A
1:00 PM86 °FScattered clouds.12 mph43%29.92 "HgN/A
12:30 PM84 °FScattered clouds.12 mph48%29.92 "HgN/A
12:00 PM84 °FScattered clouds.8 mph48%29.92 "HgN/A
11:30 AM86 °FScattered clouds.10 mph33%29.92 "HgN/A
11:00 AM86 °FScattered clouds.8 mph40%29.92 "HgN/A
10:30 AM84 °FPassing clouds.12 mph43%29.92 "HgN/A
10:00 AM84 °FPassing clouds.10 mph43%29.92 "HgN/A
9:30 AM84 °FPassing clouds.12 mph45%29.92 "HgN/A
9:00 AM82 °FPassing clouds.8 mph48%29.92 "HgN/A
8:30 AM81 °FPassing clouds.5 mph51%29.92 "HgN/A
8:00 AM75 °FPassing clouds.3 mph61%29.92 "HgN/A
7:30 AM72 °FPassing clouds.6 mph69%29.92 "HgN/A
7:00 AM72 °FPassing clouds.5 mph69%29.92 "HgN/A
6:30 AM70 °FPassing clouds.6 mph69%29.89 "HgN/A
6:00 AM70 °FPassing clouds.5 mph73%29.89 "HgN/A
5:30 AM70 °FPassing clouds.7 mph73%29.89 "HgN/A
5:00 AM70 °FPassing clouds.5 mph73%29.89 "HgN/A
4:00 AM72 °FClear.7 mph69%29.89 "Hg10 mi
3:30 AM72 °FClear.7 mph73%29.89 "Hg10 mi
3:00 AM73 °FClear.7 mph69%29.89 "Hg10 mi
2:30 AM72 °FClear.7 mph73%29.89 "Hg10 mi
2:00 AM72 °FClear.5 mph73%29.92 "Hg10 mi
1:30 AM73 °FClear.6 mph69%29.92 "Hg10 mi
1:00 AM72 °FClear.6 mph73%29.92 "Hg10 mi
12:30 AM72 °FClear.6 mph73%29.92 "Hg10 mi
12:00 AM72 °FClear.6 mph69%29.92 "Hg10 mi
11:30 PM
Sep 19
73 °FClear.6 mph69%29.92 "Hg10 mi
11:00 PM73 °FClear.6 mph69%29.92 "Hg10 mi
10:30 PM75 °FClear.5 mph69%29.92 "Hg10 mi
10:00 PM75 °FClear.3 mph69%29.92 "Hg10 mi
9:30 PM77 °FPassing clouds.5 mph69%29.92 "HgN/A
9:00 PM77 °FPassing clouds.6 mph65%29.92 "HgN/A
8:30 PM79 °FPassing clouds.7 mph61%29.92 "HgN/A
8:00 PM79 °FPassing clouds.5 mph61%29.92 "HgN/A
7:30 PM81 °FBroken clouds.3 mph58%29.89 "HgN/A
7:00 PM81 °FScattered showers. Broken clouds.5 mph58%29.89 "HgN/A
6:30 PM81 °FBroken clouds.8 mph58%29.89 "HgN/A
6:00 PM81 °FSprinkles. Broken clouds.15 mph66%29.89 "HgN/A
5:30 PM81 °FScattered clouds.18 mph66%29.86 "HgN/A
5:00 PM82 °FScattered clouds.21 mph58%29.86 "HgN/A
4:30 PM84 °FPassing clouds.21 mph55%29.86 "HgN/A
4:00 PM84 °FPassing clouds.21 mph55%29.86 "HgN/A
3:30 PM84 °FPassing clouds.22 mph55%29.86 "HgN/A
3:00 PM84 °FPassing clouds.20 mph55%29.86 "HgN/A
Weather by CustomWeather, © 2014

See weather overviewHow to use our weather pages